Total_Precipitation_Accumulation
1.23 1.55 2.29 3.35 4.45 3.89 2.94 2.49 2.03 1.66 1.28 1.08 1.02 1.08 1.28 1.51 2.02 2.84 3.17 2.91 2.20 2.19 2.65 3.56 3.75 3.43 3.16 2.77 2.72 2.85 2.96 3.18 3.19 2.95 2.70 2.45 2.27 2.23 2.27 2.12 2.09 2.08 2.09 2.13 2.03 2.03 1.98 1.99 1.97
1.17 2.10 2.98 4.24 4.39 3.28 2.82 2.53 2.07 1.43 1.03 0.77 0.67 0.89 1.07 1.02 1.20 2.04 3.00 2.90 1.98 1.85 2.17 2.74 3.27 3.14 2.90 2.66 2.67 2.78 2.82 2.83 2.83 2.54 2.22 2.13 2.07 2.05 2.17 2.29 2.26 2.12 1.92 1.87 1.88 2.03 2.02 1.91 1.86
1.33 2.34 3.21 3.78 3.15 2.73 2.66 2.31 1.77 1.23 0.85 0.69 0.61 0.67 0.93 1.28 1.57 2.30 2.73 2.08 1.62 1.47 1.91 2.61 3.12 2.88 2.65 2.52 2.55 2.59 2.66 2.62 2.56 2.43 2.21 2.06 2.02 1.95 1.96 2.21 2.32 2.12 1.86 1.66 1.74 1.83 1.97 1.88 1.84
1.78 2.72 3.06 2.87 2.37 1.98 1.92 1.82 1.31 1.12 0.81 0.57 0.55 0.71 0.95 1.48 1.85 2.28 2.31 1.73 1.44 1.42 1.77 2.15 2.55 2.37 2.25 2.27 2.31 2.28 2.15 2.15 2.35 2.39 2.25 2.12 2.00 1.84 1.77 2.06 2.09 1.90 1.78 1.64 1.63 1.74 1.81 1.72 1.68
2.12 2.89 2.99 2.43 2.00 1.73 1.51 1.28 1.04 1.03 0.95 0.73 0.59 0.99 1.53 1.82 1.94 1.99 1.95 1.62 1.43 1.63 1.95 2.03 2.27 2.17 2.14 2.13 2.14 2.06 2.08 2.19 2.33 2.34 2.25 2.16 1.92 1.71 1.72 1.88 1.89 1.67 1.56 1.53 1.67 1.79 1.63 1.49 1.45
2.58 2.83 3.25 2.57 2.05 1.73 1.56 1.20 0.92 0.87 0.81 0.70 0.69 1.02 1.75 2.09 2.01 1.94 1.86 1.71 1.55 1.54 1.72 1.87 2.19 2.16 2.03 1.94 2.06 2.02 2.10 2.40 2.50 2.36 2.27 2.24 1.95 1.74 1.61 1.74 1.87 1.61 1.44 1.46 1.60 1.65 1.52 1.35 1.37
2.74 2.93 2.77 2.12 1.93 2.01 1.59 1.03 0.94 0.91 0.87 0.73 0.64 0.99 1.70 2.14 1.83 1.61 1.64 1.58 1.52 1.43 1.46 1.45 1.54 1.70 1.75 1.83 2.01 2.08 2.26 2.43 2.49 2.28 2.16 2.11 1.83 1.61 1.49 1.55 1.68 1.55 1.46 1.50 1.52 1.59 1.56 1.40 1.40
1.84 2.07 2.16 1.98 1.96 1.93 1.33 0.84 0.74 0.75 0.81 0.54 0.52 0.89 1.53 1.79 1.54 1.51 1.50 1.50 1.49 1.39 1.34 1.20 1.21 1.39 1.55 1.65 1.84 2.03 2.21 2.21 2.21 2.10 1.99 1.86 1.62 1.44 1.45 1.43 1.60 1.66 1.55 1.60 1.65 1.58 1.46 1.36 1.35
1.70 2.09 2.42 2.17 1.87 1.63 1.12 0.88 0.66 0.52 0.56 0.47 0.45 0.56 0.85 1.11 1.24 1.40 1.47 1.43 1.55 1.43 1.30 1.24 1.12 1.13 1.30 1.48 1.57 1.88 2.01 2.01 1.81 1.76 1.82 1.69 1.40 1.21 1.28 1.37 1.68 1.68 1.65 1.58 1.54 1.47 1.34 1.19 1.10
1.69 2.22 2.25 1.58 1.20 1.15 1.05 0.90 0.73 0.69 0.75 0.66 0.59 0.57 0.67 0.88 1.09 1.22 1.29 1.33 1.36 1.37 1.18 1.12 1.10 1.06 1.01 1.05 1.35 1.76 1.60 1.53 1.30 1.26 1.28 1.33 1.31 1.28 1.10 1.34 1.66 1.59 1.50 1.40 1.38 1.33 1.08 0.82 0.74
1.36 1.55 1.39 1.25 0.92 0.78 0.92 0.87 0.67 0.74 0.88 0.69 0.67 0.63 0.64 0.76 0.86 0.97 1.03 1.05 1.08 1.15 1.07 1.00 0.95 0.92 0.94 1.01 1.10 1.30 1.36 1.35 1.20 1.08 1.06 1.22 1.22 1.11 0.97 0.94 1.05 1.15 1.18 1.04 1.01 1.00 0.81 0.73 0.77
1.21 1.12 0.97 0.91 0.71 0.72 0.92 0.81 0.70 0.80 0.78 0.55 0.47 0.46 0.59 0.70 0.73 0.75 0.83 0.97 1.01 1.06 1.07 1.04 0.97 0.97 0.93 0.86 0.81 0.87 0.91 0.97 1.00 0.97 0.93 1.08 1.10 1.06 1.03 1.00 0.93 0.96 0.99 1.02 0.97 0.95 0.83 0.80 0.80
1.13 1.04 0.84 0.68 0.70 0.73 0.81 0.86 0.75 0.77 0.65 0.56 0.48 0.55 0.63 0.66 0.66 0.67 0.73 0.85 0.92 0.99 1.06 1.02 0.93 0.91 0.91 0.86 0.76 0.74 0.84 0.87 0.95 1.01 0.93 0.94 1.04 1.07 1.03 0.95 1.00 1.01 0.99 1.00 0.98 0.88 0.83 0.84 0.79
1.06 0.97 0.87 0.73 0.70 0.74 0.81 0.86 0.82 0.90 0.72 0.64 0.55 0.58 0.61 0.63 0.65 0.68 0.70 0.79 0.83 0.84 1.01 1.05 0.97 0.98 0.96 0.89 0.80 0.78 0.86 0.97 0.96 0.85 0.81 0.83 0.90 0.99 1.09 1.10 1.11 1.07 1.05 1.10 1.11 0.90 0.90 0.97 0.95
0.93 0.98 0.95 0.85 0.82 0.80 0.85 1.09 0.98 0.91 0.80 0.78 0.67 0.58 0.58 0.59 0.58 0.65 0.65 0.71 0.80 0.87 1.01 1.02 1.01 1.11 1.05 0.95 0.92 0.84 0.86 0.92 0.96 0.91 0.85 0.89 0.91 0.93 1.04 1.10 1.13 1.08 1.03 1.08 1.38 1.25 1.00 0.97 1.01
1.05 1.16 1.31 0.92 0.81 0.84 1.00 1.25 0.93 0.91 0.90 0.98 0.80 0.66 0.61 0.60 0.58 0.56 0.56 0.68 0.74 0.91 1.00 1.13 1.03 1.13 1.13 1.06 1.04 0.98 0.97 1.03 1.04 1.01 1.03 0.99 0.97 0.97 1.09 1.15 1.07 1.08 1.15 1.26 1.49 1.58 1.31 1.06 1.04
1.21 1.29 1.26 0.97 0.74 0.77 0.89 1.01 0.83 0.80 0.79 0.82 0.78 0.69 0.68 0.57 0.54 0.50 0.51 0.59 0.67 0.84 0.98 1.15 1.14 1.10 1.18 1.23 1.24 1.15 1.12 1.15 1.14 1.08 1.04 1.05 1.07 1.14 1.22 1.25 1.20 1.19 1.22 1.39 1.40 1.63 1.67 1.44 1.31
1.14 1.02 0.99 0.87 0.75 0.75 0.77 0.69 0.68 0.68 0.70 0.69 0.71 0.66 0.59 0.54 0.54 0.50 0.45 0.49 0.58 0.76 0.92 1.11 1.23 1.33 1.42 1.45 1.50 1.47 1.35 1.26 1.29 1.29 1.26 1.29 1.37 1.32 1.37 1.42 1.43 1.52 1.54 1.58 1.52 1.71 1.84 1.65 1.61
0.78 0.78 0.83 0.72 0.61 0.64 0.59 0.54 0.58 0.62 0.66 0.61 0.63 0.62 0.49 0.44 0.49 0.47 0.42 0.47 0.52 0.64 0.76 0.97 1.36 1.78 1.97 1.86 1.84 1.88 1.93 1.86 1.75 1.72 1.70 1.77 1.76 1.76 1.80 1.79 1.77 1.75 1.73 1.81 1.81 2.09 2.47 2.00 1.73
0.72 0.78 0.83 0.75 0.52 0.51 0.52 0.47 0.47 0.54 0.56 0.53 0.50 0.52 0.47 0.43 0.40 0.38 0.37 0.42 0.46 0.65 0.83 0.97 1.30 1.76 1.98 2.10 2.18 2.36 2.50 2.35 2.21 2.20 2.16 2.22 2.24 2.41 2.35 2.33 2.34 2.28 2.31 2.29 2.20 2.35 2.72 2.37 2.07
0.73 0.74 0.75 0.68 0.52 0.48 0.48 0.51 0.46 0.50 0.45 0.44 0.44 0.45 0.40 0.34 0.33 0.34 0.35 0.40 0.44 0.58 0.75 0.91 1.15 1.46 1.80 2.06 2.28 2.54 2.75 2.72 2.60 2.44 2.41 2.47 2.55 2.69 2.78 2.75 2.83 2.69 2.60 2.66 2.57 2.54 2.78 2.85 2.55
0.76 0.51 0.47 0.47 0.62 0.63 0.49 0.75 0.55 0.53 0.48 0.43 0.43 0.42 0.41 0.34 0.33 0.38 0.38 0.41 0.45 0.55 0.67 0.85 1.08 1.32 1.57 1.79 2.16 2.57 2.86 2.95 2.85 2.75 2.70 2.69 2.70 2.73 2.92 2.93 3.06 2.91 2.83 2.83 2.73 2.54 2.74 3.10 3.07
0.57 0.44 0.44 0.47 0.57 0.53 0.39 0.54 0.54 0.47 0.51 0.47 0.43 0.40 0.38 0.35 0.37 0.41 0.43 0.49 0.55 0.61 0.68 0.82 1.01 1.26 1.51 1.71 2.04 2.44 2.69 2.88 3.00 2.81 2.68 2.70 2.71 2.72 2.86 3.01 3.11 2.97 2.87 2.82 2.93 2.84 2.81 2.79 2.84
0.45 0.49 0.48 0.51 0.58 0.64 0.32 0.46 0.60 0.45 0.42 0.43 0.40 0.35 0.37 0.40 0.43 0.48 0.59 0.68 0.72 0.68 0.73 0.86 0.99 1.18 1.34 1.47 1.67 1.90 2.25 2.47 2.77 2.73 2.64 2.75 2.70 2.62 2.56 2.74 2.97 2.91 2.91 2.92 3.01 3.07 3.02 3.02 3.06
0.44 0.70 0.94 0.96 0.92 0.61 0.26 0.42 0.58 0.44 0.37 0.37 0.39 0.37 0.40 0.44 0.47 0.56 0.74 0.85 0.88 0.77 0.76 0.85 1.03 1.11 1.21 1.30 1.38 1.53 1.77 1.89 2.23 2.53 2.49 2.38 2.42 2.47 2.52 2.57 2.58 2.58 2.68 2.84 3.06 3.03 2.95 2.95 3.05
0.38 0.61 1.00 1.16 1.00 0.63 0.42 0.60 0.64 0.49 0.41 0.36 0.35 0.37 0.42 0.47 0.54 0.73 0.94 1.04 1.04 0.92 0.85 0.92 1.09 1.18 1.22 1.25 1.28 1.38 1.46 1.50 1.66 1.86 1.96 1.95 1.99 2.22 2.34 2.46 2.43 2.44 2.51 2.62 2.75 2.77 2.83 2.78 2.74
0.36 0.43 0.49 0.73 0.68 0.70 0.63 0.72 0.65 0.44 0.42 0.43 0.46 0.50 0.60 0.68 0.75 0.91 1.08 1.22 1.11 0.97 0.90 0.96 1.10 1.25 1.28 1.31 1.37 1.45 1.44 1.38 1.47 1.47 1.58 1.74 1.76 1.82 1.96 2.06 2.17 2.30 2.34 2.43 2.60 2.66 2.66 2.67 2.66
0.27 0.34 0.53 0.79 1.03 1.04 0.80 0.80 0.80 0.66 0.59 0.55 0.60 0.64 0.76 0.87 0.95 1.07 1.23 1.29 1.17 1.03 0.95 1.00 1.12 1.24 1.44 1.57 1.51 1.48 1.54 1.57 1.77 1.79 1.61 1.54 1.68 1.72 1.77 1.83 1.92 2.09 2.19 2.28 2.36 2.46 2.57 2.56 2.57
0.32 0.43 0.60 0.83 0.88 1.18 1.31 1.16 0.89 0.82 0.78 0.79 0.83 0.86 0.92 1.06 1.07 1.08 1.23 1.32 1.23 1.02 0.96 0.96 1.02 1.14 1.27 1.32 1.37 1.34 1.42 1.53 1.80 1.99 1.94 1.74 1.71 1.70 1.68 1.66 1.71 1.85 1.97 2.08 2.20 2.27 2.26 2.26 2.40
0.40 0.54 0.78 1.21 1.16 1.06 1.29 1.23 0.85 0.79 0.82 0.81 0.82 0.82 0.86 0.96 0.98 1.05 1.14 1.11 1.03 0.87 0.81 0.81 0.84 0.96 1.11 1.13 1.20 1.28 1.31 1.41 1.52 1.64 1.67 1.60 1.48 1.43 1.47 1.51 1.50 1.59 1.79 1.92 1.94 1.97 1.96 1.98 2.09